Location: Bs. As. Argentina
(34.6000°S, 58.6333°W)
Time: 06:51:32
(UTC-03:00)

BlueWalker 3 - Visible Passes

Search period start: 20 September 2024 00:00
Search period end: 30 September 2024 00:00
Orbit: 475 x 487 km, 53.2° (Epoch: 18 September)

Date Brightness Start Highest point End Pass type
(mag) Time Alt. Az. Time Alt. Az. Time Alt. Az.
20 Sep 4.3 05:17:06 10° SSW 05:20:05 21° SE 05:23:02 10° E visible
21 Sep 4.4 04:50:01 12° S 04:52:20 19° SSE 04:55:08 10° E visible
22 Sep 4.4 04:23:58 17° SSE 04:24:34 18° SSE 04:27:12 10° ESE visible
22 Sep 2.0 05:59:07 10° SW 06:02:52 57° NW 06:06:32 10° NNE visible
23 Sep 5.0 03:58:07 14° SE 03:58:07 14° SE 03:59:14 10° ESE visible
23 Sep 1.8 05:32:25 18° SW 05:35:08 66° NW 05:38:51 10° NE visible
23 Sep 4.6 20:48:08 10° NNW 20:48:10 10° NNW 20:48:10 10° NNW visible
24 Sep 1.7 05:06:51 61° WSW 05:07:23 77° NW 05:11:08 10° NE visible
24 Sep 2.6 20:20:28 10° NNW 20:23:15 37° NNE 20:23:15 37° NNE visible
25 Sep 3.5 04:41:33 28° NE 04:41:33 28° NE 04:43:23 10° NE visible
25 Sep 2.4 19:52:48 10° NNW 19:56:19 37° NE 19:58:11 22° ESE visible
25 Sep 4.8 21:31:18 10° W 21:32:30 16° WSW 21:32:30 16° WSW visible
26 Sep 2.7 19:25:08 10° NNW 19:28:32 32° NE 19:31:59 10° ESE visible
26 Sep 3.9 21:03:21 10° W 21:06:34 26° SW 21:07:09 24° SSW visible
27 Sep 3.8 20:35:23 10° W 20:38:43 28° SW 20:41:32 13° SSE visible
28 Sep 3.7 20:07:25 10° WNW 20:10:51 31° SW 20:14:19 10° SSE visible
29 Sep 3.5 19:39:28 10° WNW 19:42:58 35° SW 19:46:32 10° SSE visible
